When you browse on this site, cookies collect data to enhance your experience and personalize the content and advertising you see.
Visit our Privacy Policy to learn more. By continuing to use the site, you agree to this use of cookies and data.
  • In Belgium
  • List of Countries
  • For 7 days
  • Water Temperature
  • Weather Map
  • Weather Widgets
  • user-avatar
    Login

    Hourly Weather Byala

    Today, 25 August, Sunday

    Time Temperature Precipitation Wind Pressure Humidity
    00:00 +22°C° 0 mm 3 mps 753 mmHg 70%
    01:00 +22°C° 0 mm 3 mps 753 mmHg 69%
    02:00 +22°C° 0 mm 3 mps 753 mmHg 68%
    03:00 +21°C° 0 mm 4 mps 753 mmHg 67%
    04:00 +21°C° 0 mm 4 mps 753 mmHg 67%
    05:00 +21°C° 0 mm 4 mps 753 mmHg 66%
    06:00 +23°C° 0 mm 4 mps 753 mmHg 59%
    07:00 +26°C° 0 mm 5 mps 753 mmHg 53%
    08:00 +28°C° 0 mm 5 mps 753 mmHg 46%
    09:00 +30°C° 0 mm 5 mps 753 mmHg 42%
    10:00 +34°C° 0 mm 6 mps 753 mmHg 38%
    11:00 +36°C° 0 mm 6 mps 753 mmHg 35%
    12:00 +35°C° 0 mm 6 mps 753 mmHg 36%
    13:00 +35°C° 0 mm 6 mps 753 mmHg 36%
    14:00 +35°C° 0 mm 7 mps 752 mmHg 37%
    15:00 +34°C° 0 mm 6 mps 752 mmHg 42%
    16:00 +33°C° 0 mm 6 mps 752 mmHg 46%
    17:00 +32°C° 0 mm 6 mps 752 mmHg 51%
    18:00 +28°C° 0 mm 6 mps 752 mmHg 63%
    19:00 +26°C° 0 mm 5 mps 752 mmHg 76%
    20:00 +23°C° 0 mm 4 mps 753 mmHg 88%
    21:00 +23°C° 0 mm 4 mps 753 mmHg 90%
    22:00 +22°C° 0 mm 4 mps 753 mmHg 91%
    23:00 +22°C° 0 mm 4 mps 753 mmHg 92%

    Tomorrow, 26 August, Monday

    Time Temperature Precipitation Wind Pressure Humidity
    00:00 +22°C° 0 mm 4 mps 753 mmHg 91%
    01:00 +22°C° 0 mm 4 mps 753 mmHg 90%
    02:00 +22°C° 0 mm 4 mps 753 mmHg 90%
    03:00 +21°C° 0 mm 4 mps 753 mmHg 89%
    04:00 +21°C° 0 mm 4 mps 753 mmHg 89%
    05:00 +21°C° 0 mm 4 mps 753 mmHg 88%
    06:00 +23°C° 0 mm 4 mps 753 mmHg 78%
    07:00 +26°C° 0 mm 4 mps 753 mmHg 69%
    08:00 +28°C° 0 mm 5 mps 753 mmHg 59%
    09:00 +30°C° 0 mm 5 mps 753 mmHg 51%
    10:00 +33°C° 0 mm 6 mps 754 mmHg 43%
    11:00 +35°C° 0 mm 6 mps 754 mmHg 35%
    12:00 +35°C° 0 mm 7 mps 754 mmHg 37%
    13:00 +34°C° 0 mm 7 mps 754 mmHg 38%
    14:00 +34°C° 0 mm 8 mps 753 mmHg 40%
    15:00 +33°C° 0 mm 8 mps 753 mmHg 44%
    16:00 +32°C° 0 mm 8 mps 753 mmHg 48%
    17:00 +31°C° 0 mm 8 mps 753 mmHg 52%
    18:00 +28°C° 0 mm 7 mps 753 mmHg 65%
    19:00 +24°C° 0 mm 6 mps 753 mmHg 78%
    20:00 +22°C° 0 mm 5 mps 754 mmHg 90%
    21:00 +22°C° 0 mm 4 mps 754 mmHg 92%
    22:00 +22°C° 0 mm 4 mps 754 mmHg 94%
    23:00 +21°C° 0 mm 3 mps 754 mmHg 95%

    Day after tomorrow, 27 August, Tuesday

    Time Temperature Precipitation Wind Pressure Humidity
    00:00 +21°C° 0 mm 3 mps 754 mmHg 95%
    01:00 +21°C° 0 mm 3 mps 753 mmHg 95%
    02:00 +21°C° 0 mm 3 mps 753 mmHg 96%
    03:00 +20°C° 0 mm 3 mps 753 mmHg 95%
    04:00 +20°C° 0 mm 3 mps 753 mmHg 94%
    05:00 +20°C° 0 mm 4 mps 753 mmHg 93%
    06:00 +22°C° 0 mm 4 mps 754 mmHg 82%
    07:00 +23°C° 0 mm 4 mps 754 mmHg 71%
    08:00 +26°C° 0 mm 4 mps 754 mmHg 60%
    09:00 +28°C° 0 mm 5 mps 754 mmHg 52%
    10:00 +30°C° 0 mm 5 mps 754 mmHg 44%
    11:00 +33°C° 0 mm 6 mps 754 mmHg 36%
    12:00 +33°C° 0 mm 6 mps 754 mmHg 38%
    13:00 +33°C° 0 mm 7 mps 754 mmHg 39%
    14:00 +33°C° 0 mm 7 mps 753 mmHg 41%
    15:00 +32°C° 0 mm 7 mps 753 mmHg 43%
    16:00 +30°C° 0 mm 6 mps 753 mmHg 46%
    17:00 +29°C° 0 mm 6 mps 753 mmHg 49%
    18:00 +27°C° 0 mm 5 mps 753 mmHg 61%
    19:00 +25°C° 0 mm 5 mps 753 mmHg 74%
    20:00 +21°C° 0 mm 4 mps 753 mmHg 86%
    21:00 +21°C° 0 mm 3 mps 754 mmHg 87%
    22:00 +21°C° 0 mm 3 mps 754 mmHg 88%
    23:00 +20°C° 0 mm 3 mps 754 mmHg 90%

    28 August, Wednesday

    Time Temperature Precipitation Wind Pressure Humidity
    00:00 +20°C° 0 mm 3 mps 754 mmHg 89%
    01:00 +20°C° 0 mm 3 mps 754 mmHg 89%
    02:00 +19°C° 0 mm 3 mps 753 mmHg 88%
    03:00 +19°C° 0 mm 4 mps 753 mmHg 86%
    04:00 +19°C° 0 mm 4 mps 753 mmHg 84%
    05:00 +18°C° 0 mm 4 mps 753 mmHg 82%
    06:00 +20°C° 0 mm 5 mps 753 mmHg 71%
    07:00 +22°C° 0 mm 5 mps 753 mmHg 59%
    08:00 +24°C° 0 mm 6 mps 754 mmHg 48%
    09:00 +27°C° 0 mm 6 mps 754 mmHg 42%
    10:00 +29°C° 0 mm 7 mps 754 mmHg 35%
    11:00 +32°C° 0 mm 7 mps 754 mmHg 29%
    12:00 +32°C° 0 mm 8 mps 753 mmHg 30%
    13:00 +32°C° 0 mm 8 mps 753 mmHg 30%
    14:00 +32°C° 0 mm 8 mps 753 mmHg 30%
    15:00 +31°C° 0 mm 8 mps 753 mmHg 33%
    16:00 +29°C° 0 mm 7 mps 752 mmHg 36%
    17:00 +28°C° 0 mm 7 mps 752 mmHg 39%
    18:00 +26°C° 0 mm 7 mps 752 mmHg 50%
    19:00 +23°C° 0 mm 6 mps 752 mmHg 61%
    20:00 +21°C° 0 mm 5 mps 753 mmHg 73%
    21:00 +20°C° 0 mm 5 mps 753 mmHg 76%
    22:00 +19°C° 0 mm 4 mps 753 mmHg 79%
    23:00 +19°C° 0 mm 4 mps 753 mmHg 82%

    29 August, Thursday

    Time Temperature Precipitation Wind Pressure Humidity
    00:00 +18°C° 0 mm 3 mps 753 mmHg 83%
    01:00 +18°C° 0 mm 3 mps 752 mmHg 83%
    02:00 +17°C° 0 mm 3 mps 752 mmHg 84%
    03:00 +17°C° 0 mm 4 mps 752 mmHg 83%
    04:00 +17°C° 0 mm 4 mps 752 mmHg 82%
    05:00 +15°C° 0 mm 4 mps 752 mmHg 82%
    06:00 +19°C° 0 mm 4 mps 752 mmHg 70%
    07:00 +21°C° 0 mm 4 mps 752 mmHg 58%
    08:00 +23°C° 0 mm 4 mps 752 mmHg 46%
    09:00 +26°C° 0 mm 4 mps 752 mmHg 40%
    10:00 +29°C° 0 mm 4 mps 752 mmHg 33%
    11:00 +32°C° 0 mm 5 mps 752 mmHg 27%
    12:00 +32°C° 0 mm 5 mps 752 mmHg 29%
    13:00 +32°C° 0 mm 5 mps 752 mmHg 31%
    14:00 +32°C° 0 mm 6 mps 752 mmHg 33%
    15:00 +30°C° 0 mm 5 mps 752 mmHg 37%
    16:00 +29°C° 0 mm 5 mps 751 mmHg 42%
    17:00 +28°C° 0 mm 5 mps 751 mmHg 46%
    18:00 +26°C° 0 mm 5 mps 752 mmHg 57%
    19:00 +23°C° 0 mm 5 mps 752 mmHg 68%
    20:00 +21°C° 0 mm 5 mps 752 mmHg 79%
    21:00 +21°C° 0 mm 4 mps 752 mmHg 82%
    22:00 +20°C° 0 mm 4 mps 752 mmHg 85%
    23:00 +20°C° 0 mm 4 mps 752 mmHg 88%

    30 August, Friday

    Time Temperature Precipitation Wind Pressure Humidity
    00:00 +20°C° 0 mm 4 mps 752 mmHg 89%
    01:00 +19°C° 0 mm 4 mps 752 mmHg 89%
    02:00 +19°C° 0 mm 4 mps 752 mmHg 90%
    03:00 +19°C° 0 mm 4 mps 752 mmHg 90%
    04:00 +18°C° 0 mm 4 mps 752 mmHg 90%
    05:00 +18°C° 0 mm 4 mps 752 mmHg 90%
    06:00 +19°C° 0.1 mm 5 mps 752 mmHg 82%
    07:00 +21°C° 0.1 mm 5 mps 753 mmHg 73%
    08:00 +23°C° 0.1 mm 6 mps 753 mmHg 65%
    09:00 +24°C° 0.1 mm 6 mps 753 mmHg 59%
    10:00 +26°C° 0.1 mm 6 mps 753 mmHg 52%
    11:00 +27°C° 0.1 mm 7 mps 754 mmHg 46%
    12:00 +27°C° 0 mm 7 mps 753 mmHg 44%
    13:00 +27°C° 0 mm 7 mps 753 mmHg 43%
    14:00 +27°C° 0 mm 8 mps 753 mmHg 42%
    15:00 +26°C° 0 mm 8 mps 753 mmHg 45%
    16:00 +24°C° 0 mm 8 mps 753 mmHg 47%
    17:00 +24°C° 0 mm 8 mps 753 mmHg 50%
    18:00 +22°C° 0 mm 7 mps 753 mmHg 58%
    19:00 +20°C° 0 mm 6 mps 753 mmHg 66%
    20:00 +19°C° 0 mm 6 mps 754 mmHg 74%
    21:00 +17°C° 0 mm 5 mps 754 mmHg 78%
    22:00 +16°C° 0 mm 5 mps 754 mmHg 82%
    23:00 +17°C° 0 mm 4 mps 754 mmHg 86%
    Show more